WXM80 ListenWXM80 Stop

You find our weather info also at:

UK Metoffice

WeatherCloud

Weather Underground

Northeastern Weather Network

AWEKAS

Citizen Weather Observer Program (CWOP)

HAMweather, WeatherForYou, PWS Weather


Weather Underground History page Text

Daily Summary for October 2, 2016 Units:  English    Metric   Both
« Previous Day
Next Day »
Daily Weekly Monthly Yearly Custom
  High: Low: Average:
Temperature: 63.2 °F 57.6 °F 60.5 °F
Dew Point: 60.5 °F 55.9 °F 58.4 °F
Humidity: 95 % 89 % 93 %
Wind Speed: 8.0 mph 0.0 mph 1.7 mph
Wind Gust: 15.0 mph - -
Wind:- - ENE
Pressure: 30.11 in 29.99 in -
Precipitation: 0.00 in    
Historical Graphs
 
 
Tabular Data for October 2, 2016
Time Temperature Dew Point Pressure Wind Wind Speed Wind Gust Humidity Rainfall Rate (Hourly)
00:05 59.3 °F 57.0 °F 30.11 in ENE 3.0 mph 10.0 mph 92 % 0.00 in
00:10 59.3 °F 57.0 °F 30.11 in ENE 8.0 mph 11.0 mph 92 % 0.00 in
00:15 59.3 °F 57.0 °F 30.11 in ENE 3.0 mph 10.0 mph 92 % 0.00 in
00:25 59.3 °F 57.0 °F 30.10 in ENE 8.0 mph 12.0 mph 92 % 0.00 in
00:30 59.3 °F 57.0 °F 30.10 in ENE 7.8 mph 11.5 mph 92 % 0.00 in
00:35 59.2 °F 56.9 °F 30.10 in ENE 3.0 mph 11.0 mph 92 % 0.00 in
00:43 59.2 °F 56.9 °F 30.11 in ENE 6.6 mph 11.0 mph 92 % 0.00 in
00:48 59.1 °F 57.1 °F 30.10 in ENE 5.6 mph 9.2 mph 93 % 0.00 in
00:53 59.1 °F 57.1 °F 30.10 in ENE 3.1 mph 8.1 mph 93 % 0.00 in
00:58 59.1 °F 57.1 °F 30.10 in ENE 4.6 mph 10.0 mph 93 % 0.00 in
01:05 59.1 °F 57.1 °F 30.10 in ENE 5.0 mph 9.0 mph 93 % 0.00 in
01:10 59.1 °F 57.1 °F 30.10 in ENE 6.0 mph 8.0 mph 93 % 0.00 in
01:15 59.1 °F 57.1 °F 30.10 in ENE 6.0 mph 13.0 mph 93 % 0.00 in
01:20 59.1 °F 57.1 °F 30.10 in ENE 3.0 mph 13.0 mph 93 % 0.00 in
01:30 58.9 °F 57.2 °F 30.10 in ENE 5.0 mph 15.0 mph 94 % 0.00 in
01:39 59.0 °F 57.3 °F 30.11 in East 6.6 mph 8.1 mph 94 % 0.00 in
01:44 58.9 °F 57.2 °F 30.10 in NNE 6.0 mph 9.2 mph 94 % 0.00 in
01:49 58.9 °F 57.2 °F 30.10 in East 3.5 mph 5.0 mph 94 % 0.00 in
01:54 58.9 °F 57.2 °F 30.11 in East 4.4 mph 7.0 mph 94 % 0.00 in
02:00 59.0 °F 57.3 °F 30.11 in ENE 3.8 mph 7.0 mph 94 % 0.00 in
02:05 58.9 °F 57.2 °F 30.11 in ENE 4.3 mph 6.9 mph 94 % 0.00 in
02:10 58.9 °F 57.2 °F 30.10 in East 3.6 mph 5.0 mph 94 % 0.00 in
02:15 58.9 °F 57.2 °F 30.10 in ENE 3.5 mph 8.1 mph 94 % 0.00 in
02:20 58.9 °F 57.2 °F 30.10 in NE 6.0 mph 9.2 mph 94 % 0.00 in
02:25 58.8 °F 56.8 °F 30.10 in ENE 4.2 mph 6.9 mph 93 % 0.00 in
02:30 58.8 °F 56.8 °F 30.11 in NE 4.0 mph 8.1 mph 93 % 0.00 in
02:35 58.9 °F 56.9 °F 30.11 in NE 2.5 mph 5.8 mph 93 % 0.00 in
02:40 58.9 °F 56.9 °F 30.10 in ENE 2.1 mph 3.5 mph 93 % 0.00 in
02:45 58.9 °F 56.9 °F 30.10 in ENE 4.0 mph 6.9 mph 93 % 0.00 in
02:51 58.9 °F 56.9 °F 30.10 in ENE 3.0 mph 9.0 mph 93 % 0.00 in
02:56 58.9 °F 56.8 °F 30.10 in ENE 5.0 mph 9.0 mph 93 % 0.00 in
03:01 58.8 °F 56.8 °F 30.10 in ENE 3.8 mph 8.1 mph 93 % 0.00 in
03:06 58.8 °F 56.8 °F 30.10 in ENE 5.4 mph 8.1 mph 93 % 0.00 in
03:16 58.7 °F 56.7 °F 30.10 in ENE 4.2 mph 8.0 mph 93 % 0.00 in
03:21 58.7 °F 56.7 °F 30.10 in ENE 2.3 mph 3.5 mph 93 % 0.00 in
03:26 58.7 °F 56.7 °F 30.10 in ENE 3.3 mph 9.2 mph 93 % 0.00 in
03:31 58.7 °F 56.7 °F 30.10 in NE 4.7 mph 9.0 mph 93 % 0.00 in
03:36 58.6 °F 56.6 °F 30.09 in ENE 3.4 mph 5.8 mph 93 % 0.00 in
03:41 58.6 °F 56.6 °F 30.09 in NE 2.4 mph 3.5 mph 93 % 0.00 in
03:46 58.5 °F 56.5 °F 30.09 in ENE 4.0 mph 6.9 mph 93 % 0.00 in
03:52 58.5 °F 56.5 °F 30.09 in ENE 2.8 mph 4.6 mph 93 % 0.00 in
03:57 58.5 °F 56.8 °F 30.09 in NNE 2.9 mph 4.6 mph 94 % 0.00 in
04:07 58.4 °F 56.7 °F 30.09 in ENE 3.6 mph 6.9 mph 94 % 0.00 in
04:12 58.4 °F 56.7 °F 30.10 in ENE 3.8 mph 5.8 mph 94 % 0.00 in
04:17 58.3 °F 56.6 °F 30.09 in North 1.9 mph 3.5 mph 94 % 0.00 in
04:22 58.2 °F 56.5 °F 30.09 in NNE 2.3 mph 4.0 mph 94 % 0.00 in
04:27 58.1 °F 56.4 °F 30.09 in NE 1.7 mph 4.6 mph 94 % 0.00 in
04:32 58.0 °F 56.3 °F 30.09 in NNE 2.7 mph 6.0 mph 94 % 0.00 in
04:37 58.0 °F 56.3 °F 30.09 in NNE 2.0 mph 6.9 mph 94 % 0.00 in
04:43 57.9 °F 56.2 °F 30.09 in NNE 2.2 mph 3.5 mph 94 % 0.00 in
04:48 57.8 °F 56.1 °F 30.09 in NE 2.4 mph 8.1 mph 94 % 0.00 in
04:53 57.7 °F 56.0 °F 30.09 in ENE 3.4 mph 8.1 mph 94 % 0.00 in
04:58 57.7 °F 56.0 °F 30.09 in ENE 3.2 mph 7.0 mph 94 % 0.00 in
05:03 57.6 °F 55.9 °F 30.09 in ENE 2.9 mph 4.6 mph 94 % 0.00 in
05:08 57.6 °F 55.9 °F 30.09 in ENE 1.2 mph 3.5 mph 94 % 0.00 in
05:13 57.6 °F 56.2 °F 30.08 in ENE 2.4 mph 3.5 mph 95 % 0.00 in
05:18 57.6 °F 56.2 °F 30.08 in ENE 3.2 mph 5.8 mph 95 % 0.00 in
05:23 57.6 °F 56.2 °F 30.08 in ENE 2.5 mph 5.8 mph 95 % 0.00 in
05:28 57.6 °F 56.2 °F 30.08 in ENE 4.4 mph 6.9 mph 95 % 0.00 in
05:34 57.6 °F 56.2 °F 30.08 in ENE 2.8 mph 8.1 mph 95 % 0.00 in
05:39 57.6 °F 56.2 °F 30.08 in ENE 3.3 mph 4.6 mph 95 % 0.00 in
05:49 57.6 °F 56.2 °F 30.08 in NE 1.8 mph 4.6 mph 95 % 0.00 in
05:54 57.7 °F 56.3 °F 30.09 in NE 3.4 mph 4.0 mph 95 % 0.00 in
05:59 57.7 °F 56.3 °F 30.08 in ENE 3.6 mph 6.9 mph 95 % 0.00 in
06:04 57.7 °F 56.3 °F 30.08 in NE 4.4 mph 9.2 mph 95 % 0.00 in
06:09 57.7 °F 56.3 °F 30.08 in NE 4.0 mph 8.1 mph 95 % 0.00 in
06:14 57.7 °F 56.3 °F 30.09 in NNE 2.1 mph 4.6 mph 95 % 0.00 in
06:20 57.8 °F 56.4 °F 30.08 in NE 5.3 mph 6.9 mph 95 % 0.00 in
06:25 57.7 °F 56.3 °F 30.09 in North 3.2 mph 6.9 mph 95 % 0.00 in
06:30 57.8 °F 56.4 °F 30.09 in ENE 1.6 mph 5.8 mph 95 % 0.00 in
06:35 57.7 °F 56.3 °F 30.08 in ENE 2.2 mph 4.6 mph 95 % 0.00 in
06:40 57.7 °F 56.3 °F 30.09 in ENE 2.7 mph 5.8 mph 95 % 0.00 in
06:45 57.7 °F 56.3 °F 30.08 in North 1.4 mph 3.0 mph 95 % 0.00 in
06:50 57.7 °F 56.3 °F 30.08 in NE 3.0 mph 5.0 mph 95 % 0.00 in
06:55 57.7 °F 56.3 °F 30.09 in ENE 2.8 mph 4.6 mph 95 % 0.00 in
07:00 57.7 °F 56.0 °F 30.09 in ENE 2.9 mph 3.5 mph 94 % 0.00 in
07:05 57.8 °F 56.4 °F 30.09 in NE 3.8 mph 8.0 mph 95 % 0.00 in
07:10 57.8 °F 56.1 °F 30.09 in NE 4.1 mph 6.9 mph 94 % 0.00 in
07:15 57.8 °F 56.1 °F 30.09 in ENE 3.3 mph 6.9 mph 94 % 0.00 in
07:21 57.8 °F 56.1 °F 30.09 in ENE 3.0 mph 7.0 mph 94 % 0.00 in
07:26 57.9 °F 56.2 °F 30.09 in ENE 4.2 mph 9.0 mph 94 % 0.00 in
07:31 58.0 °F 56.3 °F 30.09 in ENE 3.0 mph 7.0 mph 94 % 0.00 in
07:36 58.0 °F 56.3 °F 30.09 in ENE 3.0 mph 8.0 mph 94 % 0.00 in
07:41 58.0 °F 56.3 °F 30.09 in ENE 3.6 mph 5.8 mph 94 % 0.00 in
07:46 58.1 °F 56.4 °F 30.10 in ENE 3.0 mph 9.0 mph 94 % 0.00 in
07:51 58.2 °F 56.5 °F 30.10 in ENE 5.0 mph 10.0 mph 94 % 0.00 in
07:56 58.2 °F 56.8 °F 30.09 in ENE 4.5 mph 9.2 mph 95 % 0.00 in
08:06 58.4 °F 57.0 °F 30.09 in ENE 3.3 mph 5.0 mph 95 % 0.00 in
08:11 58.4 °F 56.7 °F 30.09 in ENE 2.6 mph 6.9 mph 94 % 0.00 in
08:16 58.5 °F 56.8 °F 30.10 in ENE 2.8 mph 4.6 mph 94 % 0.00 in
08:21 58.5 °F 56.8 °F 30.10 in ENE 2.5 mph 5.0 mph 94 % 0.00 in
08:26 58.6 °F 56.9 °F 30.10 in ENE 1.9 mph 3.5 mph 94 % 0.00 in
08:31 58.6 °F 56.9 °F 30.10 in ENE 3.7 mph 6.9 mph 94 % 0.00 in
08:36 58.6 °F 56.9 °F 30.10 in NE 1.8 mph 4.6 mph 94 % 0.00 in
08:41 58.7 °F 57.0 °F 30.10 in NNE 2.1 mph 6.0 mph 94 % 0.00 in
08:47 58.7 °F 57.0 °F 30.10 in ENE 4.6 mph 7.0 mph 94 % 0.00 in
08:52 58.7 °F 57.0 °F 30.09 in ENE 3.4 mph 8.1 mph 94 % 0.00 in
09:02 58.8 °F 57.1 °F 30.10 in NE 2.3 mph 3.5 mph 94 % 0.00 in
09:05 58.9 °F 57.2 °F 30.09 in NE 2.0 mph 7.0 mph 94 % 0.00 in
09:07 58.9 °F 57.2 °F 30.09 in NE 1.7 mph 4.6 mph 94 % 0.00 in
09:10 58.9 °F 57.2 °F 30.09 in NE 3.0 mph 8.0 mph 94 % 0.00 in
09:15 58.9 °F 57.2 °F 30.09 in NE 3.0 mph 6.0 mph 94 % 0.00 in
09:20 58.9 °F 56.9 °F 30.09 in NE 3.0 mph 9.0 mph 93 % 0.00 in
09:25 58.9 °F 56.9 °F 30.09 in NE 3.0 mph 7.0 mph 93 % 0.00 in
09:30 58.9 °F 56.9 °F 30.09 in NE 2.0 mph 8.0 mph 93 % 0.00 in
09:35 59.0 °F 57.0 °F 30.09 in NE 2.0 mph 5.0 mph 93 % 0.00 in
09:40 59.0 °F 57.0 °F 30.09 in NE 2.0 mph 5.0 mph 93 % 0.00 in
09:45 59.0 °F 57.0 °F 30.09 in NE 3.0 mph 8.0 mph 93 % 0.00 in
09:50 59.0 °F 57.0 °F 30.09 in ENE 2.0 mph 7.0 mph 93 % 0.00 in
09:55 58.9 °F 56.9 °F 30.08 in ENE 2.0 mph 4.0 mph 93 % 0.00 in
10:05 58.9 °F 56.9 °F 30.08 in ENE 3.0 mph 7.0 mph 93 % 0.00 in
10:10 59.0 °F 57.0 °F 30.08 in ENE 2.0 mph 4.0 mph 93 % 0.00 in
10:15 59.0 °F 57.3 °F 30.08 in NE 5.0 mph 7.0 mph 94 % 0.00 in
10:20 59.0 °F 57.3 °F 30.08 in ENE 2.0 mph 6.0 mph 94 % 0.00 in
10:30 59.3 °F 57.6 °F 30.07 in ENE 1.0 mph 3.0 mph 94 % 0.00 in
10:35 59.4 °F 57.7 °F 30.08 in ENE 1.0 mph 5.0 mph 94 % 0.00 in
10:40 59.5 °F 58.1 °F 30.08 in ENE 1.0 mph 3.0 mph 95 % 0.00 in
10:50 59.8 °F 58.1 °F 30.07 in ENE 2.0 mph 5.0 mph 94 % 0.00 in
11:05 60.2 °F 58.5 °F 30.07 in ENE 2.0 mph 8.0 mph 94 % 0.00 in
11:10 60.3 °F 58.6 °F 30.07 in ENE 3.0 mph 7.0 mph 94 % 0.00 in
11:15 60.4 °F 58.4 °F 30.07 in ENE 1.0 mph 5.0 mph 93 % 0.00 in
11:25 60.7 °F 59.0 °F 30.07 in ENE 1.0 mph 4.0 mph 94 % 0.00 in
11:40 60.8 °F 58.8 °F 30.07 in NE 1.0 mph 3.0 mph 93 % 0.00 in
11:45 60.9 °F 58.6 °F 30.07 in NE 2.0 mph 5.0 mph 92 % 0.00 in
12:05 61.3 °F 59.0 °F 30.06 in ENE 3.0 mph 8.0 mph 92 % 0.00 in
12:10 61.3 °F 59.0 °F 30.07 in Calm   4.0 mph 92 % 0.00 in
12:15 61.5 °F 59.2 °F 30.06 in NE 1.0 mph 5.0 mph 92 % 0.00 in
12:20 61.6 °F 59.3 °F 30.06 in Calm   5.0 mph 92 % 0.00 in
12:25 61.7 °F 59.4 °F 30.06 in Calm   2.0 mph 92 % 0.00 in
12:30 61.8 °F 59.5 °F 30.06 in ENE 1.0 mph 4.0 mph 92 % 0.00 in
12:35 62.0 °F 59.6 °F 30.06 in Calm   1.0 mph 92 % 0.00 in
12:40 62.1 °F 59.7 °F 30.05 in Calm   2.0 mph 92 % 0.00 in
12:45 62.2 °F 59.5 °F 30.06 in ENE 1.0 mph 2.0 mph 91 % 0.00 in
12:50 62.3 °F 59.3 °F 30.05 in ENE 1.0 mph 4.0 mph 90 % 0.00 in
12:55 62.3 °F 59.3 °F 30.05 in Calm   4.0 mph 90 % 0.00 in
13:05 62.4 °F 59.4 °F 30.05 in ENE 1.0 mph 3.0 mph 90 % 0.00 in
13:10 62.4 °F 59.4 °F 30.05 in NE 1.0 mph 3.0 mph 90 % 0.00 in
13:15 62.5 °F 59.5 °F 30.05 in NE 1.0 mph 3.0 mph 90 % 0.00 in
13:20 62.4 °F 59.4 °F 30.05 in ENE 1.0 mph 3.0 mph 90 % 0.00 in
13:25 62.4 °F 59.4 °F 30.05 in ENE 1.0 mph 6.0 mph 90 % 0.00 in
13:30 62.4 °F 59.4 °F 30.05 in NE 1.0 mph 4.0 mph 90 % 0.00 in
13:35 62.4 °F 59.4 °F 30.05 in NE 3.0 mph 4.0 mph 90 % 0.00 in
13:40 62.4 °F 59.1 °F 30.05 in NE 2.0 mph 7.0 mph 89 % 0.00 in
13:45 62.4 °F 59.1 °F 30.05 in NE 2.0 mph 4.0 mph 89 % 0.00 in
13:50 62.4 °F 59.4 °F 30.04 in NE 3.0 mph 7.0 mph 90 % 0.00 in
14:10 62.4 °F 59.4 °F 30.04 in Calm   3.0 mph 90 % 0.00 in
14:15 62.5 °F 59.5 °F 30.04 in ENE 2.0 mph 5.0 mph 90 % 0.00 in
14:20 62.6 °F 59.6 °F 30.03 in ENE 2.0 mph 4.0 mph 90 % 0.00 in
14:30 62.7 °F 59.7 °F 30.04 in Calm   5.0 mph 90 % 0.00 in
14:35 62.7 °F 59.7 °F 30.03 in ENE 1.0 mph 2.0 mph 90 % 0.00 in
14:40 62.6 °F 59.6 °F 30.04 in ENE 1.0 mph 7.0 mph 90 % 0.00 in
14:50 62.6 °F 59.6 °F 30.03 in ENE 1.0 mph 3.0 mph 90 % 0.00 in
14:55 62.6 °F 59.6 °F 30.03 in Calm   4.0 mph 90 % 0.00 in
15:10 62.6 °F 59.6 °F 30.03 in NNE 1.0 mph 1.2 mph 90 % 0.00 in
15:15 62.6 °F 59.6 °F 30.03 in ENE 0.9 mph 2.0 mph 90 % 0.00 in
15:20 62.5 °F 59.5 °F 30.03 in ENE 1.8 mph 4.0 mph 90 % 0.00 in
15:25 62.6 °F 59.6 °F 30.02 in ENE 1.4 mph 4.0 mph 90 % 0.00 in
15:31 62.6 °F 59.6 °F 30.03 in ENE 1.0 mph 4.0 mph 90 % 0.00 in
15:36 62.6 °F 59.6 °F 30.03 in Calm   1.0 mph 90 % 0.00 in
15:40 62.7 °F 59.7 °F 30.02 in Calm   2.3 mph 90 % 0.00 in
15:46 62.7 °F 60.0 °F 30.02 in Calm   2.0 mph 91 % 0.00 in
15:51 62.7 °F 60.0 °F 30.02 in Calm   1.0 mph 91 % 0.00 in
15:56 62.7 °F 60.0 °F 30.02 in ENE 0.4 mph 2.3 mph 91 % 0.00 in
16:01 62.8 °F 60.1 °F 30.02 in ENE 0.4 mph 1.2 mph 91 % 0.00 in
16:06 62.8 °F 60.1 °F 30.02 in Calm   1.2 mph 91 % 0.00 in
16:11 62.9 °F 60.2 °F 30.02 in Calm     91 % 0.00 in
16:16 62.9 °F 60.2 °F 30.01 in NE 0.3 mph 1.2 mph 91 % 0.00 in
16:21 63.0 °F 60.3 °F 30.01 in NE 0.3 mph 2.3 mph 91 % 0.00 in
16:26 63.1 °F 60.4 °F 30.01 in NE 0.2 mph 4.6 mph 91 % 0.00 in
16:31 63.1 °F 60.4 °F 30.01 in ENE 0.3 mph 1.2 mph 91 % 0.00 in
16:36 63.2 °F 60.5 °F 30.01 in Calm   1.2 mph 91 % 0.00 in
16:41 63.2 °F 60.5 °F 30.01 in Calm   1.2 mph 91 % 0.00 in
16:47 63.2 °F 60.5 °F 30.02 in Calm     91 % 0.00 in
16:52 63.2 °F 60.2 °F 30.01 in Calm     90 % 0.00 in
16:57 63.2 °F 60.2 °F 30.02 in Calm     90 % 0.00 in
17:02 63.2 °F 60.2 °F 30.02 in Calm     90 % 0.00 in
17:07 63.2 °F 60.2 °F 30.02 in Calm     90 % 0.00 in
17:12 63.2 °F 60.2 °F 30.02 in Calm     90 % 0.00 in
17:17 63.2 °F 60.2 °F 30.02 in Calm     90 % 0.00 in
17:22 63.1 °F 60.1 °F 30.01 in Calm     90 % 0.00 in
17:27 63.1 °F 60.4 °F 30.02 in Calm     91 % 0.00 in
17:38 63.1 °F 60.4 °F 30.02 in Calm     91 % 0.00 in
17:43 63.0 °F 60.3 °F 30.02 in Calm     91 % 0.00 in
17:53 63.0 °F 60.3 °F 30.02 in Calm     91 % 0.00 in
17:58 63.0 °F 60.3 °F 30.02 in Calm     91 % 0.00 in
18:03 63.0 °F 60.3 °F 30.02 in Calm     91 % 0.00 in
18:08 63.0 °F 60.3 °F 30.02 in Calm     91 % 0.00 in
18:13 63.0 °F 60.3 °F 30.02 in Calm     91 % 0.00 in
18:18 63.0 °F 60.3 °F 30.02 in Calm     91 % 0.00 in
18:23 63.0 °F 60.3 °F 30.02 in Calm     91 % 0.00 in
18:29 62.9 °F 60.2 °F 30.01 in Calm     91 % 0.00 in
18:34 62.9 °F 59.9 °F 30.01 in Calm     90 % 0.00 in
18:39 62.9 °F 59.9 °F 30.01 in Calm     90 % 0.00 in
18:44 62.9 °F 59.9 °F 30.02 in Calm     90 % 0.00 in
18:49 62.8 °F 60.1 °F 30.01 in Calm     91 % 0.00 in
18:54 62.8 °F 60.1 °F 30.01 in Calm     91 % 0.00 in
18:59 62.7 °F 60.0 °F 30.02 in Calm     91 % 0.00 in
19:04 62.7 °F 60.0 °F 30.01 in Calm     91 % 0.00 in
19:09 62.6 °F 59.9 °F 30.02 in Calm     91 % 0.00 in
19:10 62.6 °F 59.9 °F 30.02 in Calm     91 % 0.00 in
19:14 62.6 °F 59.9 °F 30.02 in Calm     91 % 0.00 in
19:15 62.6 °F 59.9 °F 30.02 in Calm     91 % 0.00 in
19:17 62.6 °F 59.9 °F 30.02 in Calm     91 % 0.00 in
19:20 62.6 °F 59.9 °F 30.02 in Calm     91 % 0.00 in
19:25 62.6 °F 59.9 °F 30.02 in Calm     91 % 0.00 in
19:30 62.5 °F 59.8 °F 30.01 in Calm     91 % 0.00 in
19:35 62.5 °F 59.8 °F 30.01 in Calm     91 % 0.00 in
19:40 62.4 °F 60.0 °F 30.01 in Calm     92 % 0.00 in
19:45 62.4 °F 60.0 °F 30.01 in Calm     92 % 0.00 in
19:50 62.3 °F 59.9 °F 30.01 in Calm     92 % 0.00 in
19:55 62.3 °F 59.9 °F 30.02 in Calm     92 % 0.00 in
20:05 62.3 °F 59.9 °F 30.02 in Calm     92 % 0.00 in
20:10 62.3 °F 59.9 °F 30.02 in Calm     92 % 0.00 in
20:15 62.3 °F 59.9 °F 30.02 in Calm   1.0 mph 92 % 0.00 in
20:20 62.2 °F 59.8 °F 30.02 in Calm   1.0 mph 92 % 0.00 in
20:30 62.2 °F 59.8 °F 30.02 in Calm   1.0 mph 92 % 0.00 in
20:35 62.2 °F 59.8 °F 30.02 in Calm     92 % 0.00 in
20:40 62.1 °F 59.7 °F 30.02 in Calm     92 % 0.00 in
20:45 62.1 °F 59.7 °F 30.02 in Calm     92 % 0.00 in
20:51 62.1 °F 59.7 °F 30.02 in Calm     92 % 0.00 in
20:56 62.1 °F 59.7 °F 30.02 in Calm     92 % 0.00 in
21:01 62.1 °F 59.7 °F 30.02 in Calm     92 % 0.00 in
21:06 62.1 °F 60.1 °F 30.02 in Calm   2.3 mph 93 % 0.00 in
21:11 62.1 °F 60.1 °F 30.01 in Calm     93 % 0.00 in
21:16 62.0 °F 60.0 °F 30.01 in Calm     93 % 0.00 in
21:21 62.0 °F 60.0 °F 30.01 in Calm     93 % 0.00 in
21:26 62.0 °F 60.0 °F 30.01 in Calm     93 % 0.00 in
21:31 62.0 °F 60.0 °F 30.01 in Calm     93 % 0.00 in
21:36 62.0 °F 60.0 °F 30.01 in Calm     93 % 0.00 in
21:41 62.0 °F 60.0 °F 30.01 in Calm     93 % 0.00 in
21:51 61.9 °F 59.9 °F 30.01 in Calm   1.2 mph 93 % 0.00 in
21:57 61.9 °F 59.9 °F 30.01 in Calm     93 % 0.00 in
22:02 61.9 °F 59.9 °F 30.01 in Calm     93 % 0.00 in
22:07 61.9 °F 60.2 °F 30.01 in Calm     94 % 0.00 in
22:12 61.9 °F 60.2 °F 30.01 in Calm     94 % 0.00 in
22:22 61.9 °F 60.2 °F 30.00 in Calm     94 % 0.00 in
22:27 61.9 °F 60.2 °F 30.00 in Calm     94 % 0.00 in
22:32 61.8 °F 60.1 °F 30.00 in Calm     94 % 0.00 in
22:37 61.8 °F 60.1 °F 30.00 in Calm     94 % 0.00 in
22:42 61.8 °F 60.1 °F 30.00 in Calm     94 % 0.00 in
22:47 61.8 °F 60.1 °F 30.00 in Calm   1.2 mph 94 % 0.00 in
22:52 61.8 °F 60.1 °F 30.00 in Calm     94 % 0.00 in
22:58 61.7 °F 60.0 °F 30.00 in Calm     94 % 0.00 in
23:03 61.7 °F 60.0 °F 30.00 in Calm     94 % 0.00 in
23:08 61.7 °F 60.0 °F 30.00 in Calm     94 % 0.00 in
23:13 61.7 °F 60.0 °F 30.00 in Calm     94 % 0.00 in
23:18 61.7 °F 60.0 °F 30.00 in Calm     94 % 0.00 in
23:23 61.6 °F 59.9 °F 30.00 in Calm     94 % 0.00 in
23:28 61.6 °F 59.9 °F 30.00 in Calm     94 % 0.00 in
23:33 61.6 °F 59.9 °F 30.00 in Calm     94 % 0.00 in
23:38 61.6 °F 59.9 °F 30.00 in Calm     94 % 0.00 in
23:43 61.6 °F 59.9 °F 30.00 in Calm     94 % 0.00 in
23:48 61.5 °F 59.8 °F 29.99 in Calm     94 % 0.00 in
23:54 61.4 °F 59.7 °F 29.99 in Calm     94 % 0.00 in
23:59 61.4 °F 59.7 °F 29.99 in Calm     94 % 0.00 in
Crab Meadow Weather
Compliments of Weather Underground - 2.75 mb

Script developed by  Jim McMurry - jmcmurry@mwt.net Adapted for the template by  Wim van der Kuil - Leuven-Template.eu

Extremes: By average annual rainfall, the wettest place in the world is Mawslynram, in Meghalaya State, India with 467 1/2 inches per annum.